CW5022 Weather Reports


Display with metric or nautical units.
time (UTC)temp
F
wind
direction
speed
MPH
gust
MPH
rain 1hr
in
rain 24hr
in
rain mn
in
humidity
%
barometer
mb
20260507032704 57 303 0.0 2.0 0.00 0.00 0.00 80 1019.5
20260507032203 57 303 0.0 0.0 0.00 0.00 0.00 80 1019.5
20260507031204 57 92 0.0 0.0 0.00 0.00 0.00 80 1019.4
20260507030705 57 92 0.0 1.0 0.00 0.00 0.00 80 1019.4
20260507025704 57 92 0.0 0.0 0.00 0.00 0.00 79 1019.3
20260507025204 57 92 0.0 0.0 0.00 0.00 0.00 79 1019.3
20260507024704 57 92 0.0 0.0 0.00 0.00 0.00 79 1019.2
20260507024204 57 92 0.0 0.0 0.00 0.00 0.00 80 1019.2
20260507023703 57 92 0.0 0.0 0.00 0.00 0.00 79 1019.2
20260507023203 57 92 0.0 1.0 0.00 0.00 0.00 79 1019.2
20260507022705 57 305 0.0 2.0 0.00 0.00 0.00 79 1019.1
20260507022204 58 300 0.0 2.0 0.00 0.00 0.00 78 1019.1
20260507021704 58 119 0.0 1.0 0.00 0.00 0.00 79 1019.1
20260507021204 58 119 0.0 0.0 0.00 0.00 0.00 79 1019.0
20260507020704 58 119 0.0 1.0 0.00 0.00 0.00 78 1019.0
20260507015704 58 88 0.0 1.0 0.00 0.00 0.00 78 1019.0
20260507014704 58 116 0.0 2.0 0.00 0.00 0.00 78 1019.1
20260507014204 58 113 0.0 1.0 0.00 0.00 0.00 78 1019.1
20260507013704 58 131 0.0 2.0 0.00 0.00 0.00 79 1019.1
20260507013204 58 117 0.0 1.0 0.00 0.00 0.00 78 1019.1
20260507012203 58 278 0.0 2.0 0.00 0.00 0.00 78 1019.2
20260507011704 58 272 1.0 2.0 0.00 0.00 0.00 78 1019.2
20260507011204 58 269 1.0 2.0 0.00 0.00 0.00 78 1019.2
20260507010704 58 104 2.0 5.0 0.00 0.00 0.00 78 1019.2
20260507010203 58 116 0.0 1.0 0.00 0.00 0.00 78 1019.2
20260507005204 58 246 0.0 0.0 0.00 0.00 0.00 77 1019.3
20260507004704 58 251 0.0 2.0 0.00 0.00 0.00 77 1019.3
20260507003704 58 275 1.0 5.0 0.00 0.00 0.00 77 1019.3
20260507003204 58 274 3.0 5.0 0.00 0.00 0.00 76 1019.3
20260507002703 58 289 0.0 2.0 0.00 0.00 0.00 76 1019.3
20260507001705 58 293 2.0 5.0 0.00 0.00 0.00 76 1019.2
20260507001204 58 282 0.0 2.0 0.00 0.00 0.00 75 1019.3
20260507000205 58 67 0.0 1.0 0.00 0.00 0.00 76 1019.3
20260506235704 58 291 1.0 2.0 0.00 0.00 0.00 76 1019.3
20260506235204 58 280 3.0 6.0 0.00 0.00 0.00 75 1019.3
20260506234703 58 257 1.0 5.0 0.00 0.00 0.00 75 1019.3
20260506233704 59 300 2.0 5.0 0.00 0.00 0.00 74 1019.2
20260506233204 59 278 0.0 2.0 0.00 0.00 0.00 75 1019.3
20260506232704 59 271 1.0 2.0 0.00 0.00 0.00 74 1019.3
20260506232204 59 263 3.0 6.0 0.00 0.00 0.00 74 1019.3
20260506231704 59 228 0.0 5.0 0.00 0.00 0.00 74 1019.2
20260506231204 59 217 1.0 8.0 0.00 0.00 0.00 73 1019.3
20260506230203 59 223 3.0 5.0 0.00 0.00 0.00 74 1019.3
20260506225704 59 118 1.0 5.0 0.00 0.00 0.00 74 1019.3
20260506224704 58 113 1.0 5.0 0.00 0.00 0.00 75 1019.4
20260506224204 58 84 0.0 5.0 0.00 0.00 0.00 75 1019.4
20260506223703 58 166 3.0 8.0 0.00 0.00 0.00 74 1019.4
20260506223204 58 138 0.0 2.0 0.00 0.00 0.00 75 1019.4
20260506221703 58 285 0.0 5.0 0.00 0.00 0.00 76 1019.6
20260506221203 58 283 1.0 2.0 0.00 0.00 0.00 76 1019.6
20260506220204 58 274 1.0 2.0 0.00 0.00 0.00 77 1019.7
20260506215704 58 268 1.0 2.0 0.00 0.00 0.00 76 1019.7
20260506215203 58 239 2.0 6.0 0.00 0.00 0.00 77 1019.6
20260506214704 58 247 0.0 2.0 0.00 0.00 0.00 77 1019.7
20260506214204 58 199 1.0 2.0 0.00 0.00 0.00 78 1019.7
20260506213705 57 298 1.0 6.0 0.00 0.00 0.00 77 1019.7
20260506213203 58 264 1.0 6.0 0.00 0.00 0.00 76 1019.6
20260506212704 58 268 0.0 2.0 0.00 0.00 0.00 77 1019.7
20260506211703 58 276 0.0 2.0 0.00 0.00 0.00 78 1019.7
20260506211204 57 276 0.0 2.0 0.00 0.00 0.00 78 1019.6
20260506210703 57 260 0.0 2.0 0.00 0.00 0.00 78 1019.6
20260506210204 57 278 0.0 2.0 0.00 0.00 0.00 78 1019.7
20260506205703 57 247 1.0 2.0 0.00 0.00 0.00 78 1019.6
20260506205204 57 278 1.0 2.0 0.00 0.00 0.00 78 1019.6
20260506204703 57 288 1.0 6.0 0.00 0.00 0.00 79 1019.5
20260506203704 57 91 1.0 2.0 0.00 0.00 0.00 80 1019.6
20260506203204 57 100 1.0 2.0 0.00 0.00 0.00 79 1019.5
20260506202704 57 244 0.0 5.0 0.00 0.00 0.00 80 1019.5
20260506202204 57 107 0.0 2.0 0.00 0.00 0.00 81 1019.5
20260506201704 57 117 0.0 1.0 0.00 0.00 0.00 80 1019.5
20260506200704 57 72 1.0 5.0 0.00 0.00 0.00 81 1019.4
20260506200203 57 113 1.0 1.0 0.00 0.00 0.00 81 1019.5
20260506195704 56 147 0.0 5.0 0.00 0.00 0.00 82 1019.5
20260506195204 56 110 1.0 5.0 0.00 0.00 0.00 83 1019.5
20260506194703 56 215 2.0 5.0 0.00 0.00 0.00 83 1019.4
20260506194204 56 278 0.0 2.0 0.00 0.00 0.00 83 1019.4
20260506193704 56 278 0.0 2.0 0.00 0.00 0.00 83 1019.4
20260506193203 56 289 1.0 6.0 0.00 0.00 0.00 84 1019.4
20260506192704 56 262 0.0 2.0 0.00 0.00 0.00 84 1019.5
20260506192204 56 262 0.0 0.0 0.00 0.00 0.00 84 1019.3
20260506191703 56 260 0.0 2.0 0.00 0.00 0.00 84 1019.3
20260506190704 56 275 2.0 5.0 0.00 0.00 0.00 86 1019.2
20260506190204 56 296 1.0 2.0 0.00 0.00 0.00 86 1019.3
20260506185704 56 105 1.0 2.0 0.00 0.00 0.00 86 1019.3
20260506185204 56 109 0.0 1.0 0.00 0.00 0.00 86 1019.3
20260506184204 55 264 1.0 5.0 0.00 0.00 0.00 87 1019.3
20260506183704 55 269 2.0 2.0 0.00 0.00 0.00 88 1019.3
20260506183203 55 287 0.0 0.0 0.00 0.00 0.00 89 1019.3
20260506182704 55 287 0.0 2.0 0.00 0.00 0.00 89 1019.2
20260506182204 55 287 2.0 5.0 0.00 0.00 0.00 90 1019.3
20260506181704 55 285 0.0 2.0 0.00 0.00 0.00 90 1019.4
20260506181204 55 283 1.0 2.0 0.00 0.00 0.00 90 1019.4
20260506180705 55 284 0.0 2.0 0.00 0.00 0.00 90 1019.2
20260506175703 55 271 0.0 2.0 0.00 0.00 0.00 89 1018.9
20260506175204 55 131 0.0 2.0 0.00 0.00 0.00 89 1018.8
20260506174704 55 151 1.0 5.0 0.00 0.00 0.00 88 1018.9
20260506174204 55 269 0.0 2.0 0.00 0.00 0.00 88 1018.8
20260506173704 55 109 0.0 2.0 0.00 0.00 0.00 88 1019.0
20260506173205 55 134 4.0 8.0 0.00 0.00 0.00 88 1019.0
20260506172704 55 283 0.0 0.0 0.00 0.00 0.00 88 1019.1
20260506172204 55 121 0.0 0.0 0.00 0.00 0.00 89 1019.0
20260506171704 55 223 0.0 0.0 0.00 0.00 0.00 89 1019.1
20260506171204 55 233 0.0 0.0 0.00 0.00 0.00 89 1019.2
20260506170703 55 230 0.0 0.0 0.00 0.00 0.00 90 1019.1
20260506164704 54 282 0.0 2.0 0.00 0.00 0.00 89 1018.9
20260506164204 54 281 2.0 2.0 0.00 0.00 0.00 89 1019.0
20260506163205 54 263 1.0 2.0 0.00 0.00 0.00 90 1018.8
20260506162705 54 284 0.0 0.0 0.00 0.00 0.00 90 1018.7
20260506162204 54 290 1.0 2.0 0.00 0.00 0.00 90 1018.6
20260506161704 54 295 0.0 2.0 0.00 0.00 0.00 90 1018.6
20260506161204 54 295 0.0 0.0 0.00 0.00 0.00 91 1018.5
20260506160704 54 295 0.0 0.0 0.00 0.00 0.00 91 1018.4
20260506160204 55 272 0.0 0.0 0.00 0.00 0.00 91 1018.4
20260506155704 55 272 0.0 0.0 0.00 0.00 0.00 91 1018.4
20260506155204 55 272 0.0 2.0 0.00 0.00 0.00 90 1018.4
20260506154704 55 271 2.0 5.0 0.00 0.00 0.00 90 1018.4
20260506154204 55 98 0.0 1.0 0.00 0.00 0.00 90 1018.5
20260506153704 55 98 0.0 2.0 0.00 0.00 0.00 90 1018.6
20260506153204 55 205 0.0 6.0 0.00 0.00 0.00 89 1018.7
20260506152703 55 266 0.0 2.0 0.00 0.00 0.00 89 1018.7
20260506152204 55 288 0.0 2.0 0.00 0.00 0.00 89 1018.7
20260506151704 55 288 0.0 0.0 0.00 0.00 0.00 89 1018.6
20260506151204 55 289 0.0 2.0 0.00 0.00 0.00 89 1018.5
20260506150704 55 288 0.0 2.0 0.00 0.00 0.00 89 1018.4
20260506145703 55 233 0.0 2.0 0.00 0.00 0.00 89 1018.2
20260506144704 55 276 0.0 0.0 0.00 0.00 0.00 89 1018.3
20260506144204 55 279 0.0 0.0 0.00 0.00 0.00 89 1018.3
20260506143703 54 275 0.0 0.0 0.00 0.00 0.00 89 1018.4
20260506143204 54 275 0.0 0.0 0.00 0.00 0.00 89 1018.4
20260506142204 54 276 1.0 2.0 0.00 0.00 0.00 89 1018.4
20260506141704 54 266 1.0 2.0 0.00 0.00 0.00 89 1018.3
20260506141204 54 276 0.0 2.0 0.00 0.00 0.00 89 1018.1
20260506140704 54 264 0.0 2.0 0.00 0.00 0.00 89 1018.2
20260506140204 54 221 0.0 0.0 0.00 0.00 0.00 89 1018.1
20260506135704 54 221 0.0 0.0 0.00 0.00 0.00 89 1018.1
20260506133704 54 115 0.0 2.0 0.00 0.00 0.00 89 1018.0
20260506132706 54 120 1.0 6.0 0.00 0.00 0.00 88 1018.0
20260506132204 54 115 0.0 2.0 0.00 0.00 0.00 88 1017.9
20260506130704 54 315 0.0 1.0 0.00 0.00 0.00 88 1017.8
20260506130204 54 107 0.0 1.0 0.00 0.00 0.00 88 1017.4
20260506125704 54 107 0.0 2.0 0.00 0.00 0.00 88 1017.4
20260506123704 54 143 0.0 2.0 0.00 0.00 0.00 88 1017.5
20260506122704 54 148 0.0 2.0 0.00 0.00 0.00 88 1017.4
20260506121704 54 318 0.0 0.0 0.00 0.00 0.00 88 1017.4
20260506120704 54 319 0.0 0.0 0.00 0.00 0.00 87 1017.4
20260506120204 54 94 0.0 0.0 0.00 0.00 0.00 87 1017.4
20260506115704 54 94 0.0 0.0 0.00 0.00 0.00 87 1017.4
20260506115203 54 94 0.0 0.0 0.00 0.00 0.00 87 1017.2
20260506114704 54 281 0.0 0.0 0.00 0.00 0.00 87 1017.2
20260506114204 54 103 0.0 0.0 0.00 0.00 0.00 87 1017.2
20260506113704 54 103 0.0 0.0 0.00 0.00 0.00 87 1017.2
20260506113203 54 103 0.0 1.0 0.00 0.00 0.00 88 1017.1
20260506112704 54 106 0.0 1.0 0.00 0.00 0.00 87 1017.0
20260506112203 54 205 0.0 2.0 0.00 0.00 0.00 88 1017.0
20260506111704 54 108 0.0 1.0 0.00 0.00 0.00 88 1017.1
20260506111204 54 108 0.0 1.0 0.00 0.00 0.00 88 1017.0
20260506110704 54 108 0.0 1.0 0.00 0.00 0.00 88 1017.0
20260506110204 54 108 0.0 5.0 0.00 0.00 0.00 88 1016.9
20260506105704 54 278 0.0 2.0 0.00 0.00 0.00 87 1016.8
20260506104704 54 277 0.0 0.0 0.00 0.00 0.00 87 1016.8
20260506103704 54 277 0.0 2.0 0.00 0.00 0.00 87 1016.8
20260506103204 54 276 0.0 2.0 0.00 0.00 0.00 87 1016.7
20260506102704 54 249 4.0 5.0 0.00 0.00 0.00 87 1016.7
20260506101704 54 282 0.0 2.0 0.00 0.00 0.00 87 1016.7
20260506101204 54 282 0.0 2.0 0.00 0.00 0.00 87 1016.6
20260506100704 54 287 0.0 2.0 0.00 0.00 0.00 88 1016.5
20260506100204 54 243 0.0 2.0 0.00 0.00 0.00 88 1016.5
20260506095703 54 252 0.0 0.0 0.00 0.00 0.00 89 1016.4
20260506094704 54 251 1.0 5.0 0.00 0.00 0.00 89 1016.3
20260506094204 54 259 0.0 2.0 0.00 0.00 0.00 90 1016.3
20260506093204 53 78 0.0 1.0 0.00 0.00 0.00 92 1016.2
20260506092704 53 79 0.0 0.0 0.00 0.00 0.00 92 1016.2
20260506092204 52 79 0.0 0.0 0.00 0.00 0.00 93 1016.2
20260506091703 52 79 0.0 0.0 0.00 0.00 0.00 92 1016.1
20260506091204 52 79 0.0 0.0 0.00 0.00 0.00 92 1016.1
20260506090704 52 79 0.0 0.0 0.00 0.00 0.00 92 1016.1
20260506090204 52 79 0.0 0.0 0.00 0.00 0.00 93 1016.1
20260506085704 52 79 0.0 0.0 0.00 0.00 0.00 93 1016.1
20260506085204 52 79 0.0 0.0 0.00 0.00 0.00 93 1016.0
20260506084704 52 79 0.0 0.0 0.00 0.00 0.00 92 1015.9
20260506084204 52 79 0.0 0.0 0.00 0.00 0.00 93 1015.9
20260506083704 53 79 0.0 0.0 0.00 0.00 0.00 93 1015.8
20260506083204 53 79 0.0 0.0 0.00 0.00 0.00 93 1015.7
20260506082704 52 79 0.0 0.0 0.00 0.00 0.00 93 1015.7
20260506081204 52 79 0.0 0.0 0.00 0.00 0.00 92 1015.6
20260506080704 52 79 0.0 0.0 0.00 0.00 0.00 92 1015.5
20260506080204 52 79 0.0 0.0 0.00 0.00 0.00 92 1015.6
20260506073204 53 79 0.0 0.0 0.00 0.00 0.00 91 1015.4
20260506072704 53 79 0.0 0.0 0.00 0.00 0.00 91 1015.4
20260506072204 53 79 0.0 0.0 0.00 0.00 0.00 91 1015.4
20260506071704 53 79 0.0 0.0 0.00 0.00 0.00 91 1015.4
20260506071204 54 79 0.0 0.0 0.00 0.00 0.00 91 1015.4
20260506070704 54 79 0.0 0.0 0.00 0.00 0.00 91 1015.4
20260506070204 54 79 0.0 0.0 0.00 0.00 0.00 91 1015.3
20260506061705 55 79 0.0 0.0 0.00 0.00 0.00 90 1015.0
20260506061204 55 79 0.0 0.0 0.00 0.00 0.00 90 1014.9
20260506060203 55 79 0.0 0.0 0.00 0.00 0.00 89 1014.8
20260506051203 56 79 0.0 0.0 0.00 0.00 0.00 87 1014.3
20260506050704 56 79 0.0 0.0 0.00 0.00 0.00 87 1014.3
20260506050204 57 79 0.0 0.0 0.00 0.00 0.00 86 1014.2
20260506044204 57 79 0.0 1.0 0.00 0.00 0.00 86 1014.1
20260506043704 57 79 0.0 0.0 0.00 0.00 0.00 86 1014.1
20260506042704 57 79 0.0 1.0 0.00 0.00 0.00 86 1014.0
20260506042203 57 268 0.0 0.0 0.00 0.00 0.00 85 1014.0
20260506041704 57 268 0.0 0.0 0.00 0.00 0.00 84 1014.0
20260506041204 58 268 0.0 0.0 0.00 0.00 0.00 84 1013.9
20260506040703 58 268 0.0 0.0 0.00 0.00 0.00 84 1013.9
20260506040204 58 268 0.0 0.0 0.00 0.00 0.00 83 1013.9
20260506035704 59 267 0.0 0.0 0.00 0.00 0.00 83 1013.9
20260506034703 59 268 0.0 0.0 0.00 0.00 0.00 82 1013.9
20260506034204 59 268 0.0 0.0 0.00 0.00 0.00 81 1013.8
20260506033705 60 268 0.0 0.0 0.00 0.00 0.00 80 1013.7
20260506033203 60 268 0.0 0.0 0.00 0.00 0.00 80 1013.7